Weather History for Mazatlan Airport, Mexico

Change the Weather History Date:

Saturday, February 23, 2013

  Actual Average Record
Temperature  
Mean Temperature 63 °F -  
Max Temperature 75 °F 78 °F 91 °F (2005)
Min Temperature 51 °F 51 °F 46 °F (2011)
Degree Days  
Heating Degree Days 2    
Growing Degree Days 13 (Base 50)    
Moisture  
Dew Point 50 °F    
Average Humidity 68    
Maximum Humidity 88    
Minimum Humidity 44    
Precipitation  
Precipitation 0.00 in - - ()
Sea Level Pressure  
Sea Level Pressure 29.89 in    
Wind  
Wind Speed 7 mph ()    
Max Wind Speed 14 mph    
Max Gust Speed -    
Visibility 12.6 miles    
Events      
Averages and records for this station are not official NWS values.
T = Trace of Precipitation, MM = Missing Value Source: Averaged Metar Reports

Daily Weather History Graph

Daily Weather History Graph

Search for Another Location

Airport:

Trip Planner

Search our weather history database for the weather conditions in past years. The results will help you decide how hot, cold, wet, or windy it might be!

Date:

Astronomy

Feb. 23, 2013 Rise Set
Actual Time 6:31 AM MST 6:05 PM MST
Civil Twilight 6:08 AM MST 6:28 PM MST
Nautical Twilight 5:42 AM MST 6:54 PM MST
Astronomical Twilight 5:16 AM MST 7:20 PM MST
Moon 4:24 PM MST (2/23) 4:46 AM MST (2/23)
Length of Visible Light 12h 19m
Length of Day
11h 34m
Waxing Gibbous, 95% of the Moon is Illuminated
Feb 23
Waxing Gibbous
Feb 25
Full
Mar 4
Last Quarter
Mar 11
New
Mar 19
First Quarter

Hourly Weather History & Observations

Time (MST) Temp. Dew Point Humidity Pressure Visibility Wind Dir Wind Speed Gust Speed Precip Events Conditions
12:42 AM 55.4 °F 46.4 °F 72% 29.91 in 10.0 mi NNE 8.1 mph - N/A   Mostly Cloudy
1:51 AM 55.4 °F 46.4 °F 72% 29.89 in 10.0 mi Calm Calm - N/A   Mostly Cloudy
2:50 AM 55.4 °F 48.2 °F 77% 29.88 in 10.0 mi WSW 10.4 mph - N/A   Mostly Cloudy
3:45 AM 55.4 °F 46.4 °F 72% 29.88 in 10.0 mi North 8.1 mph - N/A   Mostly Cloudy
4:46 AM 51.8 °F 46.4 °F 82% 29.90 in 10.0 mi NE 8.1 mph - N/A   Scattered Clouds
5:40 AM 51.8 °F 46.4 °F 82% 29.87 in 10.0 mi ESE 5.8 mph - N/A   Mostly Cloudy
6:43 AM 51.8 °F 46.4 °F 82% 29.88 in 15.0 mi West 6.9 mph - N/A   Mostly Cloudy
7:51 AM 55.4 °F 48.2 °F 77% 29.92 in 15.0 mi East 6.9 mph - N/A   Mostly Cloudy
8:47 AM 62.6 °F 51.8 °F 68% 29.93 in 15.0 mi East 8.1 mph - N/A   Mostly Cloudy
9:48 AM 68.0 °F 51.8 °F 56% 29.94 in 15.0 mi ESE 6.9 mph - N/A   Mostly Cloudy
10:46 AM 71.6 °F 53.6 °F 53% 29.93 in 15.0 mi SE 3.5 mph - N/A   Mostly Cloudy
11:44 AM 73.4 °F 51.8 °F 47% 29.91 in 15.0 mi South 8.1 mph - N/A   Mostly Cloudy
12:46 PM 75.2 °F 51.8 °F 44% 29.88 in 15.0 mi SSW 9.2 mph - N/A   Mostly Cloudy
1:49 PM 75.2 °F 53.6 °F 47% 29.86 in 15.0 mi SW 10.4 mph - N/A   Mostly Cloudy
2:43 PM 73.4 °F 53.6 °F 50% 29.84 in 15.0 mi WSW 10.4 mph - N/A   Mostly Cloudy
3:44 PM 75.2 °F 53.6 °F 47% 29.82 in 15.0 mi SW 10.4 mph - N/A   Mostly Cloudy
4:41 PM 71.6 °F 51.8 °F 50% 29.84 in 15.0 mi WSW 13.8 mph - N/A   Scattered Clouds
5:41 PM 68.0 °F 53.6 °F 60% 29.84 in 15.0 mi WSW 10.4 mph - N/A   Mostly Cloudy
6:47 PM 62.6 °F 53.6 °F 72% 29.86 in 12.0 mi WSW 9.2 mph - N/A   Mostly Cloudy
7:43 PM 60.8 °F 53.6 °F 77% 29.88 in 10.0 mi West 9.2 mph - N/A   Scattered Clouds
8:48 PM 57.2 °F 51.8 °F 82% 29.90 in 10.0 mi NW 5.8 mph - N/A   Partly Cloudy
9:47 PM 55.4 °F 50.0 °F 82% 29.90 in 10.0 mi East 6.9 mph - N/A   Partly Cloudy
10:40 PM 53.6 °F 50.0 °F 88% 29.91 in 10.0 mi East 6.9 mph - N/A   Scattered Clouds
11:40 PM 53.6 °F 48.2 °F 82% 29.90 in 10.0 mi Calm Calm - N/A   Scattered Clouds